Fort Simpson, Northwest Territories

7:46 PM MDT on March 25, 2017 (GMT -0600)
Fort Simpson

Weather History for CZFS - December, 2013

Change the Weather History Date:

Friday, December 6, 2013

  Actual Average (CYFS) Record (CYFS)
Temperature  
Mean Temperature -22 °F -  
Max Temperature -8 °F 0 °F 26 °F (2011)
Min Temperature -35 °F -8 °F -34 °F (2013)
Degree Days  
Heating Degree Days 86    
Moisture  
Dew Point -29 °F    
Average Humidity 73    
Maximum Humidity 83    
Minimum Humidity 57    
Precipitation  
Precipitation 0.61 in - - ()
Sea Level Pressure  
Sea Level Pressure 30.55 in    
Wind  
Wind Speed 2 mph ()    
Max Wind Speed 5 mph    
Max Gust Speed -    
Averages and records for this station are not official NWS values.
T = Trace of Precipitation, MM = Missing Value Source: Averaged Metar Reports

Daily Weather History Graph

Daily Weather History Graph

Search for Another Location

Airport or City:

Trip Planner

Search our weather history database for the weather conditions in past years. The results will help you decide how hot, cold, wet, or windy it might be!

Date:

Astronomy

Dec. 06, 2013 Rise Set
Actual Time 10:07 AM MST 3:44 PM MST
Civil Twilight 9:05 AM MST 4:46 PM MST
Nautical Twilight 8:05 AM MST 5:46 PM MST
Astronomical Twilight 7:11 AM MST 6:40 PM MST
Moon 12:23 PM MST (12/6) 9:21 PM MST (12/6)
Length of Visible Light 7h 41m
Length of Day
5h 37m
Waxing Crescent, 20% of the Moon is Illuminated
Dec 6
Waxing Crescent
Dec 9
First Quarter
Dec 17
Full
Dec 25
Last Quarter
Jan 1
New

Hourly Weather History & Observations

Time (MST) Temp. Windchill Dew Point Humidity Pressure Visibility Wind Dir Wind Speed Gust Speed Precip Events Conditions
12:00 AM -30.1 °F - -36.4 °F 72% 30.82 in - ESE 1.2 mph - N/A   Unknown
1:00 AM -29.0 °F - -35.3 °F 72% 30.80 in - SE 2.3 mph - N/A   Unknown
2:00 AM -28.3 °F - -34.4 °F 73% 30.79 in - SE 1.2 mph - N/A   Unknown
3:00 AM -28.8 °F -40.8 °F -35.1 °F 72% 30.78 in - SE 3.5 mph - N/A   Unknown
4:00 AM -29.2 °F -41.2 °F -35.5 °F 72% 30.77 in - SE 3.5 mph - N/A   Unknown
5:00 AM -29 °F - -35 °F 57% 30.76 in - SE 2.3 mph - -  
5:00 AM -28.8 °F - -35.1 °F 72% 30.76 in - SE 2.3 mph - N/A   Unknown
6:00 AM -29.0 °F - -35.3 °F 72% 30.74 in - SE 2.3 mph - N/A   Unknown
7:00 AM -29.0 °F - -35.3 °F 72% 30.72 in - ESE 2.3 mph - N/A   Unknown
8:00 AM -29.9 °F - -36.2 °F 72% 30.69 in - SE 2.3 mph - N/A   Unknown
9:00 AM -29.7 °F - -36.2 °F 71% 30.68 in - SE 2.3 mph - N/A   Unknown
10:00 AM -30.6 °F - -37.1 °F 71% 30.65 in - SE 2.3 mph - N/A   Unknown
11:00 AM -28 °F - -34 °F 58% 30.62 in - SE 2.3 mph - -  
11:00 AM -27.9 °F - -33.9 °F 73% 30.62 in - SE 2.3 mph - N/A   Unknown
12:00 PM -26.1 °F - -31.9 °F 74% 30.58 in - SE 2.3 mph - N/A   Unknown
1:00 PM -24.0 °F - -29.7 °F 74% 30.55 in - ESE 1.2 mph - N/A   Unknown
2:00 PM -22.4 °F - -27.9 °F 75% 30.50 in - SE 2.3 mph - N/A   Unknown
3:00 PM -21.5 °F - -26.9 °F 76% 30.45 in - South 1.2 mph - N/A   Unknown
4:00 PM -20.6 °F - -26.0 °F 76% 30.39 in - SSE 2.3 mph - N/A   Unknown
5:00 PM -19 °F - -25 °F 63% 30.35 in - South 2.3 mph - -  
5:00 PM -19.3 °F - -24.5 °F 77% 30.35 in - South 2.3 mph - N/A   Unknown
6:00 PM -17.9 °F -28.2 °F -22.9 °F 78% 30.32 in - SE 3.5 mph - N/A   Unknown
7:00 PM -16.1 °F -28.6 °F -20.9 °F 79% 30.30 in - ESE 4.6 mph - N/A   Unknown
8:00 PM -14.1 °F - -18.8 °F 79% 30.31 in - WSW 2.3 mph - N/A   Unknown
9:00 PM -11.6 °F -21.0 °F -15.7 °F 82% 30.32 in - WNW 3.5 mph - N/A   Unknown
10:00 PM -9.4 °F -18.6 °F -13.5 °F 82% 30.31 in - WNW 3.5 mph - N/A   Unknown
11:00 PM -8 °F - -12 °F 71% 30.29 in - West 2.3 mph - -  
11:00 PM -8.5 °F - -12.5 °F 83% 30.29 in - West 2.3 mph - N/A   Unknown